Home > Weather > Wilhelmshaven > Past weeks

Flag for Germany Weather for the Past 2 Weeks in Wilhelmshaven, Lower Saxony, Germany

Now
48 °F

Broken clouds.


Feels Like: 42 °F
Forecast: 43 / 48 °F
Wind: 18 mph from Southwest

Location: Wittmundhaven

Current Time: Feb 7, 2016 at 4:55:42 PM

Latest Report: Feb 7, 2016 at 4:20 PM


Visibility: N/A

Pressure: 29.45 "Hg

Humidity: 71%

Dew point: 39 °F

Location of WilhelmshavenLocation

Historic Weather in Wilhelmshaven — Graph

°F

Wilhelmshaven Temperature Yesterday

Maximum temperature yesterday: 50 °F (at 2:20 PM)
Minimum temperature yesterday: 46 °F (at 12:20 AM)
Average temperature yesterday: 48 °F

High & Low Weather Summary for the Past Weeks

 TemperatureHumidityPressure
High54 °F (Jan 25, 2:20 PM)100% (Jan 23, 7:20 PM)30.45 "Hg (Jan 23, 7:20 PM)
Low34 °F (Feb 4, 10:20 PM)62% (Feb 2, 1:20 PM)29.33 "Hg (Feb 7, 9:20 AM)
Average45 °F86%29.91 "Hg
* Reported Jan 23 3:20 PM — Feb 7 3:20 PM, Wilhelmshaven, Weather by CustomWeather, © 2016

Note: Actual official high and low records may vary slightly from our data, if they occured in-between our weather recording intervals... More about our weather records

Advertising

Wilhelmshaven Weather History for the Previous 24 Hours

 ConditionsComfort  
Time TempWeatherWind HumidityBarometerVisibility
3:20 PM
Sun, Feb 7
48 °FSprinkles. Partly sunny.20 mph71%29.42 "Hg6 mi
2:20 PM48 °FBroken clouds.17 mph71%29.42 "HgN/A
1:20 PM48 °FBroken clouds.18 mph76%29.39 "HgN/A
12:20 PM48 °FBroken clouds.20 mph76%29.39 "HgN/A
11:20 AM48 °FPartly sunny.13 mph82%29.39 "HgN/A
10:20 AM50 °FDrizzle. Partly sunny.21 mph76%29.36 "HgN/A
9:20 AM50 °FPartly sunny.16 mph71%29.33 "HgN/A
8:20 AM50 °FBroken clouds.16 mph71%29.36 "HgN/A
7:20 AM48 °FPartly cloudy.14 mph76%29.36 "HgN/A
6:20 AM48 °FCool.13 mph71%29.36 "HgN/A
5:20 AM48 °FCool.16 mph71%29.36 "HgN/A
4:20 AM46 °FCool.15 mph76%29.39 "HgN/A
3:20 AM46 °FCool.15 mph76%29.42 "HgN/A
2:20 AM46 °FCool.14 mph76%29.45 "HgN/A
1:20 AM46 °FCool.14 mph76%29.47 "HgN/A
12:20 AM46 °FCool.14 mph76%29.50 "HgN/A
11:20 PM
Sat, Feb 6
46 °FCool.13 mph76%29.53 "HgN/A
10:20 PM46 °FCool.10 mph76%29.53 "HgN/A
9:20 PM46 °FCool.10 mph82%29.56 "HgN/A
8:20 PM46 °FCool.10 mph82%29.59 "HgN/A
7:20 PM48 °FCool.14 mph76%29.62 "HgN/A
6:20 PM48 °FPassing clouds.14 mph76%29.62 "HgN/A
5:20 PM48 °FPartly sunny.15 mph76%29.65 "HgN/A
4:20 PM48 °FPartly sunny.14 mph82%29.65 "HgN/A
Weather by CustomWeather, © 2016

See weather overviewHow to use our weather pages